Wind_Speed
20 19 18 16 16 15 15 15 15 15 15 15 16 16 15 15 15 14 13 12 12 12 11 11 11 11 11 10 10 10 9 10 10 11 11 12 12 12 11 11 9 9 10 10 10 11 11 11 11 11 12 13 12 12 11 12 12 11 11 14 14 13 12 12 13 14 13 11 12 13 13 14 15 14 13 14 13 13 13 13 13 15 16 17 16
22 22 21 20 19 19 18 17 17 16 17 17 17 17 17 17 16 15 14 14 14 13 13 12 12 12 12 11 11 10 10 10 11 12 12 12 13 13 12 11 11 11 12 13 13 13 13 13 13 13 14 15 15 14 13 13 15 16 15 16 17 16 15 15 14 16 17 16 15 15 15 16 17 16 15 16 16 16 15 14 14 15 16 18 18
25 24 23 23 23 22 21 20 20 19 19 19 19 19 19 19 18 17 16 15 15 15 14 13 13 12 12 12 12 11 11 11 11 12 13 13 13 12 11 11 11 12 13 14 15 15 16 16 16 15 16 18 18 17 16 16 17 18 18 18 20 20 19 18 17 17 19 21 20 18 17 18 18 18 18 18 18 18 18 17 17 16 17 18 20
27 26 25 25 25 24 23 23 22 22 22 22 22 22 21 20 19 19 18 17 16 16 15 15 14 13 13 12 12 12 12 11 12 14 15 15 14 13 12 12 13 14 14 15 16 17 18 18 18 17 18 19 20 19 19 19 19 19 20 20 21 23 22 21 20 20 20 22 23 23 21 20 20 20 19 19 20 20 21 21 21 21 21 21 22
27 26 26 27 26 26 25 25 24 24 24 24 24 23 22 21 20 20 20 19 18 17 16 16 16 15 14 13 13 13 13 13 14 15 16 16 16 14 14 14 14 15 15 16 17 18 19 19 19 20 20 21 22 22 21 21 22 21 21 21 22 23 24 23 22 22 22 23 24 25 25 23 23 23 22 21 21 22 23 23 24 24 25 25 25
25 26 26 27 27 26 26 26 25 25 25 24 23 22 21 21 20 21 20 20 19 18 18 18 18 18 17 16 15 15 16 15 16 17 18 18 18 17 16 16 17 17 18 18 18 19 19 20 21 22 23 24 24 24 23 24 25 25 24 24 24 25 26 25 23 23 24 25 26 27 28 27 26 26 25 24 23 24 24 26 27 27 26 27 28
27 27 27 26 26 25 25 25 25 25 24 23 22 21 21 21 21 21 21 22 22 21 21 21 20 20 20 19 19 18 18 17 18 19 19 19 19 18 18 18 19 20 20 20 20 20 22 23 23 24 25 26 25 24 24 25 26 27 27 27 27 27 28 27 25 24 25 26 27 28 29 29 28 28 28 27 27 26 26 26 28 29 29 28 29
29 28 27 27 25 26 27 26 26 26 24 23 23 22 21 21 22 23 24 25 25 25 24 23 22 21 21 21 20 19 18 18 18 19 19 19 18 18 17 18 19 20 21 21 21 21 22 24 25 26 27 27 27 26 26 26 27 27 28 28 28 29 29 29 28 27 27 28 29 29 30 30 30 30 30 30 30 30 29 28 27 29 30 31 31
30 29 29 28 27 29 31 30 28 28 27 25 24 23 23 24 25 26 27 27 28 27 26 24 23 21 21 20 20 20 19 19 19 20 20 20 20 19 19 19 19 20 20 20 20 21 22 24 26 27 28 29 29 30 29 29 29 29 29 29 30 30 30 30 30 30 30 31 31 32 32 32 32 32 32 33 33 33 33 32 31 30 31 31 33
33 32 33 33 32 32 32 30 29 29 27 26 25 24 25 27 28 28 28 29 29 28 27 25 23 22 20 19 19 20 20 20 20 21 22 23 23 23 23 22 22 23 25 24 24 23 24 26 26 27 29 29 30 31 32 33 33 32 32 32 32 33 33 32 32 33 33 34 34 34 35 34 34 34 34 34 36 36 35 35 34 34 34 34 35
33 34 35 36 37 36 33 31 31 30 29 28 27 25 26 28 29 28 28 30 30 28 27 26 25 23 22 20 20 21 22 22 22 22 23 25 25 25 26 25 24 27 30 30 30 29 29 28 28 29 31 31 31 31 32 34 35 35 34 34 35 35 35 35 35 35 35 35 36 37 38 37 37 37 37 37 38 38 38 38 37 37 37 37 38
35 37 36 35 37 37 34 32 32 32 31 30 30 30 29 28 28 27 29 31 31 29 27 27 28 26 25 23 22 22 24 25 24 23 23 24 26 26 27 25 24 26 29 30 32 33 32 30 30 33 34 33 33 33 34 35 36 36 36 37 37 37 37 37 37 37 37 37 38 39 39 39 39 39 39 39 39 40 40 40 40 39 39 39 39
37 39 38 36 36 37 36 34 32 32 32 32 32 31 30 29 29 29 29 30 29 28 28 28 28 28 26 25 24 24 26 27 26 25 25 25 27 28 28 27 26 27 29 31 32 33 34 33 33 35 37 37 37 37 37 37 37 37 38 38 38 39 39 39 39 39 39 40 40 40 39 39 39 39 40 40 40 40 40 41 40 40 40 40 40
37 39 40 38 35 34 34 34 32 31 32 33 33 32 31 31 32 31 29 28 27 28 28 28 28 28 26 25 25 26 27 27 27 27 27 27 28 29 29 29 29 30 32 33 33 33 34 37 38 38 38 38 38 38 37 38 40 41 42 42 42 42 42 42 42 42 42 42 42 42 41 40 40 40 41 41 41 41 41 41 41 41 42 42 42
36 38 39 37 33 32 33 33 31 31 33 34 33 31 31 33 34 33 31 29 27 27 28 28 28 27 26 25 26 26 27 28 29 29 28 29 30 31 31 31 31 32 32 33 34 34 36 38 40 40 40 39 38 38 38 38 38 39 40 41 43 44 44 43 44 44 43 43 44 44 44 42 41 41 41 42 42 42 42 42 42 42 43 45 45
30 33 32 28 26 27 31 34 35 35 35 35 34 32 31 32 33 32 32 30 28 27 29 30 29 27 27 27 27 28 29 29 30 30 31 31 32 32 31 30 30 30 31 33 34 34 35 36 36 37 39 39 37 35 33 31 30 29 30 32 34 37 39 40 41 42 43 43 44 44 43 43 43 43 43 43 43 44 45 45 45 45 47 47 48
21 21 21 17 13 13 17 23 30 33 32 32 32 31 29 30 31 31 31 30 28 28 30 31 30 29 29 30 30 30 31 32 32 33 33 33 33 32 30 29 28 28 32 35 33 27 26 28 27 24 23 24 25 25 24 23 24 24 25 27 29 30 32 34 37 39 40 40 41 41 41 43 43 44 45 45 45 46 46 46 47 48 50 51 51
14 12 11 12 10 9 9 11 15 19 21 23 26 28 29 30 32 34 34 33 30 29 30 32 33 32 31 31 31 31 32 33 33 34 35 35 33 31 30 28 26 24 25 25 22 18 17 20 22 19 16 17 20 21 21 24 26 27 28 31 31 31 31 33 36 37 37 37 38 39 40 41 41 42 43 44 44 44 45 46 47 49 50 51 51
14 11 10 10 11 11 12 11 10 10 12 15 18 21 23 25 26 29 31 31 31 30 31 33 34 33 32 33 34 34 34 35 36 36 37 36 34 32 30 29 28 29 27 23 18 17 18 20 23 23 22 23 24 24 25 28 30 32 33 34 35 35 36 37 38 38 38 38 38 39 40 40 40 40 41 41 42 42 43 44 45 45 46 45 45
13 11 8 8 7 8 9 11 11 12 13 15 17 19 20 20 20 21 22 23 25 25 25 25 26 27 28 31 33 33 32 31 31 32 32 31 31 31 30 28 28 31 34 32 27 25 26 27 28 28 27 27 27 28 30 31 33 35 36 36 37 37 38 39 39 40 40 40 40 41 41 41 41 41 41 41 41 41 42 42 42 42 42 42 42
9 8 6 5 5 5 6 7 9 11 14 16 18 19 19 18 19 19 19 19 19 19 20 21 21 21 22 23 23 23 23 22 22 23 23 24 25 27 28 28 29 30 32 34 34 33 33 33 32 30 28 28 29 29 31 32 34 36 37 38 39 40 40 40 41 41 42 42 42 42 42 42 42 42 42 41 41 41 42 42 42 42 42 42 43
6 6 6 6 6 6 6 7 7 9 11 13 14 14 15 15 16 17 17 18 18 18 19 20 21 21 21 21 21 21 21 21 22 22 23 23 24 26 27 29 31 32 33 34 35 34 33 33 32 31 30 30 30 31 32 34 35 37 38 39 40 41 42 43 43 43 44 44 44 44 44 43 43 43 43 43 43 43 43 43 43 43 43 43 43
7 7 7 8 8 8 8 8 9 10 11 12 12 13 14 14 15 17 18 18 19 19 19 20 20 21 21 22 22 23 23 23 24 24 25 25 26 27 29 31 32 33 34 35 35 35 34 34 33 33 33 33 33 34 35 36 37 38 39 40 41 42 43 43 44 44 45 45 46 46 46 46 46 46 46 45 45 45 45 45 45 45 45 45 45
9 10 10 10 11 12 11 11 12 13 13 14 14 15 16 16 17 18 19 20 20 21 21 21 22 22 22 23 23 24 25 25 26 27 27 28 28 29 30 32 33 34 35 35 36 36 36 36 35 35 35 35 36 36 37 37 38 39 40 40 41 42 43 44 45 45 45 46 46 47 47 48 48 48 48 48 48 49 49 49 49 49 49 49 49
12 12 12 13 14 15 15 15 15 15 16 16 16 17 18 18 19 20 21 21 22 22 23 23 24 24 24 24 25 25 26 27 28 28 29 29 30 31 32 33 34 35 35 36 36 36 36 36 36 35 35 35 36 36 37 37 38 39 40 40 41 42 43 44 45 46 46 47 47 47 48 48 49 49 49 50 50 50 51 51 51 51 52 52 52
15 14 14 15 16 17 17 18 18 18 18 19 19 20 20 21 21 22 23 24 24 25 25 25 26 26 26 27 27 27 28 28 29 29 30 30 31 32 33 33 34 35 35 36 36 36 36 36 36 36 36 36 36 37 38 38 39 40 40 41 42 42 43 44 44 45 46 47 47 48 49 49 50 50 51 51 51 52 52 52 53 53 53 54 54
18 18 17 18 18 19 19 20 19 19 20 21 22 22 23 23 24 24 25 26 26 27 27 27 28 28 28 29 29 29 29 30 30 30 31 31 32 32 33 33 34 35 36 36 37 37 37 37 37 37 37 38 38 39 40 40 41 41 42 43 44 44 45 45 46 46 47 47 48 48 49 50 50 51 51 52 53 53 53 54 54 54 54 54 55
21 21 20 20 20 21 21 22 21 21 21 21 22 23 24 25 26 26 27 28 28 29 30 30 31 31 31 31 31 31 32 32 32 32 32 33 33 34 34 34 35 35 36 36 37 37 37 37 38 38 39 40 41 41 42 42 43 43 44 44 45 45 46 46 47 48 48 48 49 49 50 50 51 51 52 52 53 53 54 54 54 54 55 55 55
24 23 23 23 23 23 23 23 23 23 23 23 24 24 25 26 26 27 28 29 30 30 31 32 32 33 33 34 34 34 34 34 34 34 34 34 35 35 35 35 35 36 36 37 37 37 37 38 38 39 40 40 41 42 43 43 44 44 45 45 45 46 46 47 47 48 49 49 50 51 51 52 52 53 53 54 54 55 55 55 55 56 56 56 56
26 26 25 25 25 26 25 25 25 25 25 26 26 27 27 28 28 29 29 30 30 31 31 32 32 33 33 34 35 35 35 35 35 35 34 34 34 34 34 34 35 35 36 36 37 37 38 38 39 40 41 42 43 43 44 44 45 45 45 46 46 46 47 48 48 49 50 50 51 52 52 53 54 54 55 56 56 57 57 58 58 59 59 59 60
26 26 26 25 25 25 25 26 26 27 27 28 28 28 29 29 29 30 30 30 30 31 31 31 31 31 31 31 32 32 33 33 33 33 33 32 32 32 32 33 33 34 34 35 36 37 38 39 40 40 41 42 43 44 44 45 45 45 46 47 47 48 49 50 50 51 52 52 53 54 55 56 56 57 57 58 59 59 60 60 61 61 61 62 62
27 26 26 26 25 25 25 26 26 27 27 28 28 28 29 29 29 29 30 29 29 29 29 29 28 27 27 26 26 26 27 28 29 30 30 31 31 31 32 32 33 33 34 35 36 37 38 39 40 41 42 43 43 44 45 45 46 47 48 48 49 50 51 52 53 54 55 56 57 58 59 59 60 60 61 61 61 62 62 62 63 63 64 64 64
27 27 27 26 26 26 26 26 26 26 26 27 27 27 28 28 28 28 28 27 26 25 24 24 23 22 22 22 22 22 23 24 25 26 27 28 29 30 30 31 32 33 33 34 36 37 38 39 40 41 41 42 43 43 44 45 46 47 48 49 51 52 53 54 55 56 57 58 59 60 60 61 61 62 63 63 64 64 65 65 66 66 67 67 67
26 26 26 25 25 24 24 24 23 24 24 24 24 24 24 24 24 24 23 22 21 20 19 19 19 19 19 20 20 21 22 23 24 25 26 26 27 28 29 30 31 32 33 34 35 36 37 38 39 39 40 41 42 43 44 45 47 48 49 50 51 52 53 54 55 57 58 59 59 60 61 61 62 63 64 64 65 66 67 67 68 68 69 70 70
24 23 22 22 21 21 20 20 20 20 19 19 19 19 19 19 19 19 18 18 18 17 17 17 17 18 19 20 20 21 22 23 24 25 25 26 27 28 29 30 31 32 33 34 35 37 38 39 40 41 42 44 45 46 47 48 49 50 51 52 53 54 55 56 58 59 60 61 62 62 63 64 65 65 66 67 68 68 69 69 70 70 71 71 71
20 20 19 18 18 17 17 17 16 16 15 15 15 15 14 15 15 15 15 15 16 16 17 17 18 19 20 20 21 22 22 23 24 25 26 27 27 28 29 30 32 33 35 36 38 39 41 42 44 45 46 47 48 49 49 50 51 52 53 54 56 57 58 59 61 62 63 64 65 66 67 68 69 70 70 71 71 72 72 72 72 72 72 72 71
18 17 17 16 15 15 15 15 14 14 13 13 12 12 12 12 12 13 14 14 15 16 17 17 18 19 20 21 21 22 23 24 25 25 26 27 28 29 31 32 34 35 37 39 40 42 44 45 46 47 48 48 49 50 50 51 53 54 55 57 58 59 61 62 64 65 66 67 68 69 70 71 72 72 73 73 74 74 74 74 74 73 73 72 71
17 16 16 15 15 15 15 14 14 14 13 13 12 12 12 12 12 13 13 14 15 15 16 17 17 18 19 20 21 22 23 24 25 26 27 28 30 31 33 34 36 38 39 41 42 43 44 45 45 46 47 48 49 50 51 53 54 56 57 59 60 61 63 64 66 67 68 69 70 71 71 72 72 72 72 72 72 72 72 71 71 70 69 68 68
17 16 16 16 16 16 15 15 14 14 14 13 13 12 12 12 12 13 13 13 13 14 14 15 16 17 18 20 21 22 23 25 26 27 29 30 32 33 35 37 38 39 40 41 42 42 43 44 44 45 47 48 50 51 53 55 56 58 59 61 62 64 65 66 68 69 70 70 71 71 71 70 70 70 69 69 69 68 67 66 65 64 64 64 64
16 16 16 16 16 15 15 15 14 14 13 13 12 12 12 11 11 11 12 12 13 14 15 16 17 18 19 21 22 23 25 26 28 29 31 33 34 36 37 38 39 39 39 40 40 41 42 44 45 46 48 50 52 54 55 57 59 60 61 63 64 65 67 68 68 69 70 70 70 69 69 69 68 68 67 66 65 63 62 61 61 61 61 61 61
16 16 16 16 15 15 14 14 13 13 12 12 11 11 10 11 11 12 13 13 14 16 17 18 19 20 21 23 24 25 27 29 30 32 33 35 36 37 37 37 38 38 39 40 40 41 43 45 47 49 51 53 55 56 58 59 60 61 63 64 65 66 66 67 67 67 67 67 67 66 66 65 65 63 62 61 60 59 59 59 59 59 59 60 60
17 17 17 16 15 15 15 14 14 13 12 11 11 10 11 11 12 13 14 16 17 18 19 20 21 22 23 25 26 28 29 31 32 33 34 35 36 36 36 37 38 39 39 40 41 43 45 47 49 51 53 55 56 58 59 60 61 63 64 65 65 65 65 64 64 64 64 63 62 62 61 60 59 58 57 57 57 57 57 57 57 57 57 58 59
18 18 18 17 16 16 16 15 15 14 13 12 12 12 12 13 14 15 16 18 19 20 21 22 23 24 25 27 29 30 32 33 34 34 35 35 35 36 37 38 39 39 40 42 43 45 47 50 52 53 55 56 58 59 60 62 63 64 64 64 64 63 62 61 61 60 60 59 58 57 57 56 56 56 56 55 55 54 54 53 53 54 55 56 58
18 18 18 18 17 17 17 17 16 15 14 14 13 13 14 15 16 17 19 20 21 22 23 24 25 26 28 30 31 32 33 34 34 35 35 35 36 37 38 38 39 40 42 44 46 48 50 51 53 55 56 57 59 60 62 63 63 63 62 61 61 60 59 59 58 57 56 56 56 55 55 54 54 53 52 51 50 49 49 49 50 52 54 56 59
19 19 19 19 19 19 19 18 17 17 16 16 15 15 16 17 19 20 21 22 24 24 26 27 28 29 30 32 33 33 34 34 35 35 35 36 37 38 38 39 40 42 43 45 47 49 51 53 54 56 57 59 60 61 61 61 60 60 59 59 59 58 57 56 56 55 55 54 54 53 53 52 50 48 47 45 45 45 46 48 49 51 53 54 54
20 20 19 19 19 20 20 20 19 19 18 17 17 17 18 20 21 23 24 25 26 27 28 29 30 31 32 33 34 34 34 34 35 35 36 37 37 38 39 40 41 43 45 47 49 50 52 54 56 57 58 59 59 59 59 59 58 59 58 58 57 56 55 55 54 54 53 52 51 50 49 46 44 42 41 41 42 44 46 47 47 48 47 46 44
21 20 20 20 20 21 21 21 21 20 19 19 19 20 21 23 24 25 27 28 28 29 30 31 32 33 33 34 34 34 34 34 35 36 36 37 38 38 40 41 43 44 46 48 50 52 54 55 56 57 57 58 58 58 58 58 58 58 57 56 56 55 54 53 53 52 50 49 48 45 43 40 39 38 39 41 42 44 44 43 42 41 40 39 38
21 20 20 20 21 21 21 22 21 21 21 21 22 23 24 25 26 27 28 29 30 31 32 32 32 33 33 34 34 34 34 34 35 36 37 37 38 39 41 42 44 46 47 49 51 52 54 54 55 56 57 57 57 57 57 57 56 56 55 55 54 53 52 52 50 49 47 45 42 39 37 36 36 38 40 41 41 40 38 38 37 37 36 36 35
21 21 20 21 21 21 22 22 22 22 23 23 24 25 26 27 28 29 30 31 32 32 32 32 33 33 34 34 34 34 34 35 35 36 37 38 39 41 42 44 45 46 48 50 51 52 53 54 55 55 56 56 56 55 55 55 55 54 53 53 52 52 50 49 47 45 42 39 36 33 33 34 36 38 39 38 36 35 34 34 35 34 34 33 33
22 21 21 22 22 23 23 23 23 24 24 25 26 27 28 29 29 30 31 32 32 32 32 32 33 33 33 33 33 34 34 35 36 37 38 39 40 42 43 44 45 47 48 50 51 52 52 53 53 53 53 53 53 53 53 53 52 52 52 51 50 49 47 44 41 38 35 32 30 30 31 34 36 37 36 34 32 32 32 32 33 32 32 31 31
23 23 23 24 24 24 24 24 24 25 26 27 28 29 30 31 31 32 32 32 32 32 32 32 33 33 33 33 33 34 34 35 36 38 39 40 41 42 43 44 45 47 48 49 50 51 51 51 51 51 51 51 51 51 51 51 51 50 50 49 47 44 41 38 35 32 29 28 27 29 32 34 35 34 32 31 30 30 31 31 31 31 31 31 30
Wind_Direction
209 212 214 217 219 220 220 219 220 220 220 221 221 222 222 225 227 228 226 223 221 221 222 224 228 231 232 233 234 233 230 229 231 234 238 240 243 246 249 253 257 261 264 267 269 271 272 273 277 280 283 283 284 286 288 289 290 292 292 289 288 291 294 295 297 299 302 300 298 300 301 300 303 308 307 305 304 303 303 303 302 301 301 301 301
211 213 215 217 220 223 225 226 228 228 227 227 228 228 228 229 230 231 231 228 225 225 225 224 225 228 232 235 237 238 238 238 238 239 241 242 245 249 254 258 262 262 264 266 270 273 274 276 277 277 278 279 281 286 290 294 296 297 296 293 293 297 299 300 300 302 304 304 302 301 301 300 302 304 304 303 303 302 301 300 298 295 295 296 297
215 216 219 222 223 224 226 228 229 230 230 230 230 230 231 232 232 234 235 234 232 233 234 233 231 231 234 237 240 242 242 243 247 250 251 251 252 254 258 263 265 264 265 268 271 274 275 276 277 279 282 286 291 296 299 298 295 294 295 294 295 297 298 299 298 299 299 300 300 299 298 297 298 300 300 300 300 299 299 298 295 292 291 291 292
222 219 221 224 225 226 227 228 229 229 230 230 230 230 231 232 233 235 237 238 238 240 243 243 243 241 241 242 242 244 244 244 247 252 254 255 258 259 260 262 263 265 266 269 272 275 278 282 285 287 289 288 288 288 288 287 286 285 287 290 292 293 294 294 295 296 295 295 296 296 296 295 295 295 295 296 295 295 295 294 292 291 290 289 288
231 229 228 228 228 228 227 227 227 228 229 229 230 231 233 235 236 238 239 240 241 245 249 251 251 250 249 248 246 246 245 242 245 251 253 255 259 260 261 261 263 265 266 268 271 275 279 282 283 284 282 279 279 281 283 283 283 282 284 287 289 289 290 292 295 295 293 292 292 293 293 293 293 292 292 291 291 292 292 290 289 289 289 288 287
234 234 234 235 236 236 235 233 231 231 232 234 234 235 237 238 240 242 243 242 241 244 248 251 253 253 253 251 248 248 247 244 245 250 253 256 258 260 261 262 264 265 266 267 269 272 274 274 274 275 276 276 279 282 284 284 283 283 284 284 284 284 286 289 291 290 289 289 289 289 289 290 291 291 290 289 288 289 290 290 290 289 288 287 287
229 231 232 234 237 240 243 244 243 240 238 240 241 242 242 242 244 244 244 243 241 239 240 244 247 250 252 252 250 250 251 251 251 252 255 257 259 262 264 264 265 265 266 268 269 269 270 270 271 271 272 274 276 277 278 279 280 282 283 283 284 285 286 288 287 285 285 286 286 285 286 288 289 290 291 290 289 287 287 287 289 290 289 289 288
227 229 231 234 235 236 237 239 242 243 240 239 241 243 244 245 244 243 242 241 241 240 239 239 241 245 250 254 255 256 258 260 260 262 263 264 265 266 266 265 264 264 265 266 268 268 270 271 271 271 271 273 275 276 276 276 277 277 278 278 280 282 284 286 286 285 285 285 286 286 287 288 289 291 291 291 291 290 289 287 287 288 290 291 291
230 232 233 233 234 236 235 232 232 237 239 237 237 238 240 241 241 241 241 241 241 242 242 240 239 242 247 253 257 259 259 260 264 267 270 271 271 270 269 267 266 266 266 267 268 271 272 274 274 275 276 277 278 278 277 276 276 276 276 276 277 279 281 284 285 286 287 287 288 288 288 288 289 290 290 290 291 292 291 290 289 287 287 288 289
234 238 237 234 233 236 238 236 235 237 240 243 242 238 236 236 238 240 242 243 244 244 244 244 241 240 241 248 256 258 258 258 260 264 269 272 273 274 274 272 272 273 272 271 271 272 274 276 278 279 280 280 279 279 279 278 277 276 276 277 278 279 281 282 283 284 285 286 287 287 287 288 288 288 288 289 290 290 289 288 288 288 286 286 286
236 240 241 239 239 240 241 241 242 241 241 245 246 242 236 234 236 238 241 243 243 242 244 244 243 243 241 242 249 256 260 260 259 262 267 271 273 274 273 274 276 278 277 276 274 273 272 275 279 280 279 278 278 277 277 277 277 277 277 278 279 279 280 281 282 283 283 283 284 285 286 286 286 286 286 287 287 287 286 286 286 286 285 285 285
236 238 240 242 244 243 242 242 244 245 244 245 246 246 243 239 238 239 239 240 240 240 241 240 242 246 244 242 246 254 259 262 263 264 267 270 273 274 275 276 278 278 278 277 276 275 274 276 279 279 277 277 277 277 276 275 275 275 276 277 278 279 279 280 281 281 281 282 284 284 284 283 283 283 283 284 284 284 284 284 285 285 284 283 283
236 239 241 243 244 244 242 241 244 247 248 249 249 248 248 245 243 240 237 238 240 238 236 236 240 245 245 242 245 250 256 262 264 265 267 269 272 274 276 278 277 277 277 278 278 278 277 276 277 277 276 276 275 274 275 275 276 276 276 276 277 278 278 278 279 280 281 282 283 284 284 283 281 280 280 281 281 281 281 282 283 283 282 282 282
237 240 240 241 244 247 246 244 244 248 250 250 248 248 248 245 243 240 237 238 239 236 233 236 241 244 244 246 247 250 255 261 264 265 267 269 271 273 274 274 275 277 278 278 278 279 278 276 275 275 276 275 273 272 274 276 277 278 278 277 278 278 277 278 279 280 280 281 281 283 284 283 282 281 280 279 278 278 278 278 278 279 279 280 281
237 239 241 242 246 248 248 246 245 245 246 246 245 247 248 246 243 239 237 239 240 237 236 240 243 243 245 249 252 253 257 261 263 265 266 267 269 271 273 276 278 279 280 279 278 276 277 276 274 273 272 272 273 275 276 277 278 280 281 281 281 280 279 279 279 279 279 280 281 281 282 282 281 282 282 280 278 277 277 276 276 277 279 282 284
236 239 241 243 244 244 244 243 242 241 243 244 244 244 246 246 244 238 235 239 243 241 241 243 246 248 249 250 253 257 260 262 264 265 265 266 268 271 275 278 280 281 281 277 274 273 274 276 277 274 271 270 272 275 275 277 281 284 285 284 281 279 278 277 278 280 281 282 282 281 281 281 280 280 280 281 281 281 281 281 282 283 284 286 287
228 233 235 232 235 247 250 247 246 244 244 245 244 242 242 243 243 241 240 243 245 245 244 243 246 250 253 254 256 260 262 263 264 264 264 265 266 270 274 275 278 284 282 271 263 263 271 276 280 282 277 272 271 270 269 274 278 278 277 276 275 274 271 271 275 279 282 282 282 282 283 283 282 280 279 279 280 280 281 283 284 286 286 287 289
212 219 228 227 232 254 265 260 253 248 245 243 243 243 243 244 247 248 250 251 251 250 249 248 250 254 256 256 258 259 259 260 261 262 263 264 263 265 268 269 271 279 283 277 265 261 265 271 280 289 289 281 276 272 270 271 271 270 271 275 277 278 275 274 276 280 282 284 285 286 288 288 288 287 284 283 283 282 282 284 285 287 288 289 291
223 231 245 249 254 262 262 260 258 252 249 250 247 245 244 244 246 249 251 252 253 254 254 256 259 262 260 256 258 260 261 261 262 264 264 264 262 260 261 263 261 262 271 282 287 282 277 279 285 290 290 286 283 281 278 276 275 275 278 280 283 284 284 283 284 285 286 287 288 288 289 289 289 289 289 288 288 288 288 288 289 289 290 292 293
244 250 259 265 272 272 262 257 254 246 244 249 249 245 242 242 246 249 250 250 252 255 259 263 267 268 265 262 260 260 262 263 264 264 264 262 259 257 257 260 260 259 263 270 280 286 288 289 289 289 288 286 282 280 278 277 277 278 280 284 286 288 289 290 291 292 292 292 291 291 291 291 291 291 292 292 292 292 292 292 292 293 293 294 293
257 258 258 259 263 261 253 248 245 238 237 244 247 245 243 247 252 257 259 259 260 261 264 266 267 267 266 263 260 259 261 262 263 263 263 260 256 256 258 260 261 263 265 271 280 288 292 293 292 291 289 286 284 281 279 278 277 278 280 283 286 288 290 292 293 294 295 295 295 295 294 294 295 295 295 295 295 295 294 294 294 294 294 294 293
284 279 271 267 264 259 252 247 245 243 243 247 250 249 251 255 258 262 264 265 265 264 264 263 263 263 262 261 261 262 263 264 263 263 265 266 263 263 266 268 269 273 278 282 288 292 294 295 295 293 290 287 285 283 281 280 280 281 282 284 286 288 290 292 293 294 295 296 296 296 297 297 297 297 297 297 296 296 295 295 294 294 293 293 292
273 275 275 273 269 267 264 257 252 252 252 253 255 256 258 260 260 262 263 263 264 264 264 263 263 263 263 263 264 266 267 268 269 269 270 271 271 271 272 274 276 280 284 286 289 292 294 295 294 294 293 291 288 286 285 284 284 285 285 286 287 289 290 292 294 295 295 295 296 296 297 297 298 298 298 298 298 297 297 296 296 295 294 294 293
248 252 253 255 257 260 262 258 252 250 250 251 253 255 257 259 260 261 262 264 266 268 268 269 269 268 268 268 268 269 271 272 273 274 275 276 276 277 278 279 281 283 285 287 290 292 293 294 294 294 293 292 291 290 289 289 288 288 288 289 289 291 292 294 295 295 296 296 296 297 297 297 298 298 298 298 298 298 298 297 297 297 296 295 295
244 246 246 247 248 251 254 255 253 252 252 252 253 255 257 259 260 262 264 266 268 269 270 271 273 274 275 276 276 276 277 277 277 278 279 280 281 282 283 284 286 287 289 291 291 292 293 293 294 294 293 293 293 292 291 291 291 291 291 291 292 293 294 294 295 295 296 297 297 298 298 298 298 298 298 298 298 297 297 297 296 296 296 295 295
249 251 252 252 252 251 251 252 254 255 257 257 258 258 258 259 260 261 262 264 265 267 269 270 272 273 275 276 278 278 279 280 281 282 282 283 284 285 286 287 288 289 290 291 291 292 293 294 294 295 295 295 294 294 293 293 293 294 294 295 296 296 296 296 296 296 296 296 296 297 297 297 297 296 296 296 296 296 296 296 296 296 296 296 295
256 257 257 257 256 254 252 252 253 256 260 262 263 263 263 264 264 264 265 266 267 269 271 273 274 275 276 277 278 279 280 282 283 284 285 286 287 288 288 289 289 290 290 291 291 292 293 294 295 295 295 295 295 295 295 296 297 298 298 299 299 299 299 299 299 298 298 297 297 296 296 295 295 295 295 295 295 295 295 295 295 295 295 295 295
259 260 262 262 261 259 256 255 256 260 265 268 268 267 267 267 268 268 268 269 271 272 273 275 276 277 279 280 281 282 283 284 285 287 288 289 290 291 291 292 292 292 292 292 293 293 294 294 294 294 294 294 295 296 297 298 299 300 300 300 301 300 300 300 299 299 298 297 297 296 296 295 295 294 294 294 293 293 293 293 293 292 292 292 293
261 263 264 265 264 264 263 262 262 266 271 275 274 272 271 271 271 271 271 271 272 272 273 274 275 277 278 280 281 283 284 285 286 287 289 290 290 291 292 292 292 293 293 294 294 295 295 295 295 295 296 296 297 297 298 299 300 301 301 301 300 299 299 298 297 297 296 296 296 296 295 295 295 294 294 293 293 292 292 292 291 291 291 291 290
264 266 267 268 267 267 266 266 267 271 276 278 278 277 277 277 276 276 276 276 276 276 276 276 277 277 278 279 280 281 282 284 285 286 287 288 288 289 290 290 291 292 293 294 295 295 296 296 296 297 298 298 299 300 301 301 302 302 302 301 300 300 299 298 298 297 297 296 295 295 294 294 293 293 293 292 292 292 292 291 291 290 290 290 290
264 266 269 271 270 269 268 268 270 274 277 279 279 280 280 280 279 279 278 278 279 279 279 280 280 280 280 279 279 280 280 281 283 283 284 285 286 287 288 289 291 292 294 295 296 296 297 297 297 298 299 300 301 301 302 302 302 302 302 302 301 301 300 300 299 298 298 297 296 295 295 295 294 294 294 294 293 293 293 292 291 291 290 290 289
266 268 271 272 272 272 272 273 274 276 278 279 280 281 281 281 281 281 281 281 281 280 280 281 281 282 281 281 280 279 279 279 280 281 283 284 286 287 289 290 292 294 295 296 297 297 297 298 298 299 299 300 300 301 301 301 301 301 301 300 300 300 299 299 298 298 297 297 296 296 296 296 296 295 295 295 295 294 294 293 293 292 291 291 290
268 270 271 272 273 274 275 276 277 278 280 281 281 281 281 281 282 282 282 282 282 282 282 282 282 283 282 281 280 280 280 280 281 283 284 285 287 288 290 291 292 293 294 294 294 295 295 296 296 297 297 297 297 297 297 297 297 297 297 297 297 297 297 297 297 296 296 296 295 295 295 295 295 295 294 294 294 293 293 292 292 292 292 291 291
264 265 267 269 270 272 273 275 276 277 277 278 278 279 279 280 280 281 282 283 284 284 284 283 283 282 282 282 283 283 284 285 286 287 289 290 291 293 294 294 294 294 294 294 294 295 295 296 296 296 296 296 296 297 297 297 298 298 298 298 298 298 298 297 297 297 296 296 296 296 296 295 295 295 294 294 293 293 293 292 292 292 292 292 291
258 259 260 260 261 263 265 267 268 269 270 271 273 275 276 278 279 280 281 281 282 283 283 283 284 284 284 285 286 287 288 289 291 292 293 295 295 296 296 296 296 296 296 297 297 298 298 299 299 299 300 300 301 301 302 302 302 302 302 301 301 301 300 300 300 299 299 299 298 298 297 297 296 296 295 295 294 294 294 294 293 293 293 292 292
254 255 255 255 255 256 257 257 258 259 261 265 269 272 275 277 279 280 280 280 281 282 284 286 287 289 290 291 291 292 292 293 295 296 296 296 296 297 297 298 298 299 299 299 300 301 301 302 302 303 303 304 304 304 304 304 304 303 303 303 302 302 302 302 302 301 301 300 300 299 299 298 298 297 297 297 296 296 295 295 295 295 294 294 293
255 254 255 255 255 254 254 254 255 257 260 262 265 268 271 274 276 277 278 280 282 283 285 286 287 289 290 290 292 293 294 295 295 296 296 297 298 299 300 300 300 301 301 301 302 302 303 303 303 304 304 304 305 305 304 304 304 304 303 303 303 303 302 302 302 301 301 300 300 299 299 298 298 297 297 297 296 296 296 296 296 295 295 295 295
254 254 255 255 255 253 252 252 253 256 259 261 263 264 265 267 269 271 273 275 277 278 280 282 284 286 288 289 291 292 293 294 296 297 298 299 300 300 300 300 300 301 301 301 302 302 303 303 304 304 304 305 304 304 304 304 304 303 303 303 303 302 302 302 301 300 300 299 299 299 298 298 297 297 297 296 296 296 296 296 296 295 295 295 295
252 252 251 250 249 249 248 248 248 250 253 256 258 259 259 261 263 266 270 274 277 281 284 286 287 289 291 292 294 295 296 297 298 299 299 300 299 300 300 300 300 301 301 302 303 303 304 305 305 305 305 305 305 305 305 305 305 305 304 304 304 303 303 302 302 301 300 300 299 299 299 298 298 298 297 297 296 296 296 296 296 295 295 295 295
251 249 247 246 245 245 246 246 246 246 247 249 251 254 257 260 265 270 276 282 286 289 291 292 293 295 296 297 298 299 300 300 300 300 300 300 300 300 301 301 302 302 303 304 304 305 305 305 305 305 306 306 306 307 307 307 307 306 306 305 305 304 304 303 303 302 302 301 301 300 300 299 299 298 298 298 297 297 297 296 296 296 296 296 295
250 248 247 246 245 245 245 246 246 245 245 246 249 254 260 267 274 281 286 290 293 294 296 297 299 299 300 300 300 300 300 299 300 300 300 301 301 301 302 302 303 303 303 304 304 305 306 306 307 308 308 308 308 308 308 308 307 307 306 306 306 305 305 304 304 303 302 302 301 301 300 300 299 299 299 299 299 298 298 298 297 297 297 297 297
245 245 245 245 245 245 244 244 244 245 246 247 250 256 263 272 280 286 290 294 296 297 298 299 299 299 298 298 298 298 299 300 300 301 301 301 301 302 302 302 303 303 304 305 306 307 308 308 309 309 309 309 309 308 308 308 308 308 308 308 307 307 306 305 304 303 303 302 302 301 301 301 300 300 300 300 299 299 299 299 299 299 299 299 299
241 242 243 244 244 243 241 239 239 239 239 241 247 256 266 275 282 287 290 292 293 294 295 295 295 296 297 298 299 301 302 302 303 303 303 303 303 304 304 304 304 305 306 308 308 309 309 309 310 310 310 310 310 310 310 310 310 310 310 309 308 307 306 306 305 304 303 303 302 302 302 301 301 301 301 301 301 301 301 302 302 303 303 304 304
240 240 241 242 242 241 240 238 235 233 234 239 248 259 270 278 283 286 288 289 290 291 292 294 295 297 299 301 303 304 304 305 305 305 305 305 305 305 306 306 307 308 309 309 310 310 310 311 311 312 312 312 313 313 313 313 312 311 311 310 309 308 307 306 305 305 304 303 303 303 303 302 302 303 303 303 304 304 305 306 307 308 308 308 308
241 241 241 241 241 241 240 238 235 233 236 243 252 263 272 279 284 286 288 290 291 292 294 296 298 300 302 303 304 305 305 305 305 305 306 306 306 307 308 308 309 309 309 309 310 311 312 313 314 314 315 315 315 315 315 314 313 312 311 310 309 309 308 307 306 305 305 305 305 305 305 305 305 305 306 307 308 309 310 310 311 311 312 312 313
241 240 240 241 242 242 241 240 238 239 243 251 259 267 274 280 284 287 289 291 293 294 296 298 300 302 303 304 304 305 305 306 306 306 306 307 307 308 308 308 308 308 309 310 312 313 314 316 316 316 317 317 317 316 316 315 314 313 312 311 310 310 309 308 307 307 307 307 307 306 307 307 308 309 310 311 312 313 313 314 314 315 316 317 318
238 237 238 241 242 243 244 244 244 248 253 259 266 272 277 281 285 287 289 291 293 295 297 300 301 302 303 304 305 305 306 306 306 306 307 307 307 307 307 307 308 309 310 312 314 316 317 317 318 318 318 318 318 318 317 316 315 314 313 313 312 311 311 310 310 309 309 308 308 309 310 311 313 314 315 315 316 316 316 317 318 319 320 321 321
236 237 239 242 244 246 247 249 252 256 261 266 271 275 279 282 285 287 289 291 294 296 298 300 301 302 303 304 305 305 305 305 305 306 306 306 307 307 307 308 309 311 313 315 316 317 318 319 320 320 320 320 320 319 318 317 317 316 315 315 314 313 312 312 311 310 310 310 311 312 314 316 317 317 318 318 318 318 318 319 320 321 321 322 323
237 240 243 245 248 250 252 255 259 263 267 271 274 277 280 282 284 286 289 291 294 296 298 299 301 302 303 304 305 305 304 304 305 305 306 306 307 307 308 309 311 313 315 316 317 319 320 321 322 322 322 321 321 320 319 319 319 318 317 317 316 314 313 312 312 311 311 312 313 316 318 319 320 320 320 320 320 320 320 321 321 322 323 324 325
241 244 246 248 251 253 256 260 263 267 271 274 276 278 280 282 285 287 289 292 294 295 297 299 301 303 304 304 304 304 304 304 305 306 306 307 308 308 310 311 313 314 316 317 319 321 322 323 323 323 322 322 322 322 321 321 320 320 319 318 317 316 315 314 314 313 313 314 317 319 321 322 322 322 322 322 322 322 322 322 323 324 326 326 326
242 245 247 250 253 256 259 263 267 270 273 275 277 279 281 283 285 288 290 292 293 295 298 300 302 303 303 303 303 304 304 305 305 306 307 308 309 310 311 312 314 315 317 319 321 323 324 324 324 323 323 323 323 323 323 322 322 321 320 320 319 319 318 318 317 316 316 317 320 322 325 326 326 325 325 324 324 324 325 325 325 326 327 327 327
Height
5905 5907 5908 5909 5911 5911 5912 5913 5914 5914 5915 5916 5917 5917 5918 5918 5919 5920 5921 5921 5921 5921 5921 5921 5921 5922 5922 5922 5922 5923 5923 5923 5924 5924 5924 5925 5925 5926 5926 5927 5927 5928 5928 5927 5927 5927 5927 5927 5927 5927 5927 5926 5926 5926 5926 5926 5926 5926 5926 5925 5925 5925 5925 5925 5924 5923 5922 5923 5922 5921 5921 5920 5919 5919 5919 5918 5918 5917 5917 5916 5915 5915 5913 5912 5911
5903 5904 5905 5907 5908 5909 5910 5911 5912 5913 5914 5915 5915 5916 5917 5917 5918 5919 5920 5920 5920 5920 5920 5920 5920 5921 5921 5921 5922 5922 5922 5922 5923 5923 5923 5924 5924 5925 5925 5926 5926 5926 5926 5926 5926 5925 5925 5925 5925 5925 5925 5924 5924 5925 5925 5926 5925 5925 5925 5925 5924 5924 5924 5923 5923 5922 5920 5920 5920 5920 5920 5919 5918 5918 5917 5916 5916 5915 5915 5914 5914 5913 5912 5911 5910
5900 5902 5903 5904 5905 5906 5907 5908 5909 5910 5911 5912 5913 5914 5915 5916 5917 5918 5918 5919 5920 5920 5920 5920 5920 5920 5920 5920 5921 5921 5921 5922 5922 5922 5922 5922 5923 5923 5924 5924 5924 5924 5924 5924 5924 5924 5924 5924 5923 5924 5923 5923 5923 5924 5925 5925 5924 5923 5923 5923 5922 5922 5922 5922 5921 5921 5919 5917 5917 5917 5918 5917 5917 5916 5915 5915 5914 5913 5912 5912 5911 5911 5910 5909 5908
5899 5900 5900 5901 5902 5903 5904 5905 5906 5907 5908 5909 5910 5911 5913 5914 5915 5916 5917 5918 5919 5919 5920 5920 5920 5919 5919 5919 5920 5920 5920 5920 5920 5920 5920 5921 5921 5921 5921 5922 5922 5922 5922 5922 5922 5922 5922 5922 5922 5923 5923 5922 5921 5921 5921 5921 5920 5920 5920 5920 5920 5919 5919 5920 5920 5919 5918 5916 5914 5914 5914 5915 5914 5914 5914 5913 5912 5911 5910 5909 5908 5908 5907 5907 5906
5899 5899 5899 5899 5900 5900 5901 5902 5903 5904 5905 5907 5908 5910 5911 5913 5914 5915 5915 5916 5917 5918 5919 5919 5920 5919 5919 5919 5919 5918 5918 5918 5918 5918 5918 5918 5919 5919 5919 5919 5919 5919 5919 5919 5920 5920 5920 5920 5920 5920 5919 5918 5918 5918 5918 5918 5917 5917 5917 5916 5916 5916 5916 5917 5918 5917 5917 5915 5913 5911 5911 5911 5911 5911 5911 5911 5910 5909 5908 5907 5906 5906 5905 5903 5902
5896 5897 5898 5898 5899 5900 5901 5901 5902 5903 5904 5905 5907 5909 5910 5911 5912 5913 5914 5914 5915 5915 5916 5917 5918 5919 5918 5918 5918 5917 5917 5917 5916 5916 5915 5916 5916 5916 5917 5917 5916 5916 5916 5917 5918 5918 5917 5917 5916 5916 5916 5916 5916 5917 5916 5915 5915 5914 5914 5914 5913 5913 5912 5913 5914 5914 5913 5912 5911 5909 5908 5908 5908 5907 5907 5908 5908 5907 5906 5905 5903 5903 5902 5901 5899
5892 5893 5895 5896 5898 5900 5901 5902 5902 5903 5904 5905 5906 5907 5909 5909 5910 5911 5911 5912 5912 5912 5912 5913 5914 5915 5916 5916 5916 5916 5915 5915 5915 5914 5914 5914 5914 5914 5914 5914 5914 5914 5914 5914 5916 5915 5914 5913 5913 5913 5913 5913 5914 5914 5913 5912 5912 5911 5911 5911 5910 5910 5908 5909 5910 5910 5909 5908 5908 5907 5906 5905 5904 5904 5903 5903 5903 5904 5903 5902 5900 5898 5897 5897 5896
5889 5891 5892 5894 5895 5896 5896 5897 5899 5900 5901 5902 5903 5905 5906 5906 5907 5907 5907 5908 5908 5908 5908 5908 5910 5911 5912 5913 5914 5914 5914 5914 5914 5914 5913 5913 5913 5913 5912 5912 5912 5911 5911 5912 5912 5912 5911 5911 5910 5910 5910 5910 5910 5910 5909 5909 5908 5908 5908 5907 5907 5906 5906 5905 5905 5905 5905 5905 5904 5904 5903 5902 5901 5900 5900 5899 5898 5898 5898 5898 5898 5896 5894 5892 5891
5887 5888 5890 5890 5891 5892 5892 5892 5893 5896 5897 5899 5900 5901 5902 5902 5902 5903 5903 5904 5905 5905 5905 5906 5907 5908 5909 5910 5911 5912 5912 5912 5912 5912 5912 5911 5911 5911 5910 5910 5909 5909 5909 5909 5910 5910 5909 5908 5907 5907 5906 5907 5907 5906 5906 5905 5905 5905 5905 5904 5904 5903 5903 5902 5901 5901 5901 5900 5900 5900 5899 5898 5897 5896 5895 5894 5894 5894 5893 5893 5893 5892 5891 5889 5887
5884 5885 5886 5887 5887 5888 5889 5890 5891 5893 5895 5896 5897 5898 5898 5898 5898 5899 5901 5902 5902 5903 5904 5906 5906 5905 5906 5907 5908 5909 5909 5909 5909 5909 5909 5909 5909 5908 5907 5907 5907 5907 5908 5908 5908 5908 5907 5906 5905 5904 5904 5903 5903 5903 5902 5902 5902 5901 5901 5901 5901 5900 5899 5898 5898 5897 5897 5896 5896 5896 5895 5894 5893 5892 5891 5890 5889 5889 5888 5888 5887 5887 5886 5885 5883
5881 5881 5882 5884 5885 5886 5887 5887 5888 5890 5892 5893 5894 5895 5894 5894 5894 5896 5897 5898 5899 5901 5903 5904 5904 5903 5903 5903 5904 5905 5906 5906 5906 5905 5906 5906 5906 5906 5905 5905 5905 5905 5905 5905 5905 5905 5904 5903 5903 5902 5901 5900 5899 5899 5899 5899 5898 5897 5897 5897 5896 5896 5895 5894 5894 5893 5893 5892 5892 5892 5891 5890 5889 5888 5887 5886 5885 5884 5883 5883 5882 5882 5881 5880 5878
5877 5877 5878 5880 5882 5882 5883 5883 5884 5885 5887 5889 5890 5891 5891 5891 5891 5892 5893 5893 5895 5897 5899 5900 5901 5901 5901 5900 5900 5901 5902 5903 5903 5902 5902 5902 5902 5902 5903 5904 5904 5902 5901 5900 5900 5900 5900 5899 5899 5899 5898 5897 5896 5895 5894 5894 5894 5893 5893 5893 5892 5891 5891 5890 5889 5889 5889 5888 5888 5887 5886 5885 5885 5884 5883 5882 5881 5880 5878 5877 5877 5876 5875 5874 5873
5871 5872 5873 5874 5876 5877 5879 5879 5880 5881 5883 5885 5887 5888 5889 5889 5889 5889 5890 5890 5891 5894 5895 5896 5897 5898 5898 5897 5897 5898 5899 5900 5900 5900 5900 5899 5899 5899 5900 5900 5900 5898 5897 5897 5897 5896 5896 5896 5895 5894 5893 5892 5891 5890 5889 5889 5889 5889 5889 5888 5888 5887 5887 5886 5885 5885 5884 5884 5883 5882 5882 5881 5880 5879 5878 5877 5876 5875 5874 5873 5872 5870 5869 5867 5867
5867 5868 5868 5870 5873 5875 5876 5876 5877 5878 5879 5881 5883 5884 5885 5886 5886 5886 5888 5889 5889 5890 5891 5893 5894 5894 5894 5894 5894 5895 5896 5896 5897 5897 5897 5897 5896 5895 5896 5896 5896 5895 5894 5894 5893 5892 5892 5891 5889 5888 5887 5886 5885 5885 5885 5885 5885 5885 5885 5884 5883 5882 5882 5881 5880 5880 5879 5878 5877 5877 5876 5876 5875 5874 5873 5872 5871 5870 5869 5868 5866 5865 5863 5861 5861
5863 5864 5865 5867 5870 5872 5872 5872 5873 5874 5874 5876 5879 5880 5881 5881 5882 5884 5886 5886 5887 5888 5889 5890 5890 5891 5892 5892 5892 5893 5893 5893 5893 5893 5893 5893 5892 5891 5892 5892 5892 5891 5891 5890 5889 5887 5887 5886 5884 5883 5882 5880 5880 5880 5881 5881 5880 5880 5880 5878 5877 5877 5876 5876 5874 5873 5873 5873 5872 5871 5871 5870 5869 5868 5867 5866 5865 5865 5864 5863 5861 5860 5858 5857 5856
5860 5862 5863 5865 5866 5866 5866 5867 5869 5870 5870 5871 5874 5877 5878 5877 5877 5880 5882 5882 5884 5886 5887 5887 5887 5888 5888 5889 5889 5889 5890 5890 5890 5890 5890 5890 5889 5888 5888 5889 5888 5887 5886 5885 5883 5882 5882 5880 5879 5878 5876 5875 5875 5876 5876 5876 5876 5876 5875 5873 5872 5871 5871 5870 5868 5867 5868 5867 5866 5865 5865 5864 5863 5862 5862 5861 5860 5859 5858 5858 5857 5856 5854 5852 5851
5858 5859 5860 5862 5862 5862 5862 5863 5864 5866 5867 5868 5870 5872 5874 5874 5874 5875 5877 5878 5881 5883 5883 5884 5884 5884 5884 5885 5885 5886 5886 5886 5887 5886 5886 5886 5886 5885 5885 5885 5885 5884 5881 5877 5877 5877 5876 5875 5874 5873 5871 5871 5871 5871 5871 5871 5872 5871 5870 5868 5868 5866 5865 5865 5863 5863 5862 5861 5860 5859 5858 5858 5857 5857 5856 5856 5855 5854 5853 5852 5851 5850 5848 5847 5846
5855 5857 5858 5858 5859 5859 5860 5861 5862 5863 5865 5866 5867 5868 5870 5871 5871 5872 5873 5874 5876 5878 5879 5880 5880 5881 5881 5881 5882 5882 5882 5882 5882 5882 5882 5882 5882 5882 5881 5881 5882 5880 5874 5870 5872 5873 5871 5869 5868 5869 5868 5868 5868 5868 5868 5867 5867 5866 5865 5864 5863 5862 5860 5859 5859 5858 5857 5856 5854 5853 5853 5852 5852 5851 5851 5850 5849 5848 5847 5846 5845 5844 5843 5841 5839
5852 5854 5854 5854 5856 5857 5859 5860 5861 5862 5864 5864 5865 5866 5867 5868 5868 5869 5869 5870 5871 5872 5874 5874 5875 5875 5876 5877 5877 5877 5877 5877 5877 5877 5877 5877 5878 5877 5877 5876 5877 5875 5870 5867 5868 5868 5867 5865 5865 5866 5866 5865 5865 5866 5866 5865 5863 5862 5861 5859 5858 5857 5855 5854 5853 5852 5851 5851 5850 5849 5848 5848 5847 5846 5845 5845 5844 5843 5842 5841 5840 5839 5837 5835 5833
5849 5851 5851 5852 5854 5856 5857 5859 5860 5862 5864 5864 5863 5864 5865 5865 5866 5866 5866 5866 5867 5868 5868 5869 5870 5870 5871 5872 5872 5872 5872 5872 5872 5872 5872 5872 5872 5872 5871 5872 5872 5870 5867 5864 5863 5862 5862 5862 5862 5863 5863 5863 5862 5862 5862 5861 5860 5859 5857 5855 5854 5853 5852 5850 5849 5848 5847 5846 5845 5845 5844 5843 5842 5841 5840 5839 5838 5837 5836 5835 5834 5832 5830 5829 5827
5847 5848 5850 5851 5853 5854 5856 5857 5859 5860 5862 5862 5862 5861 5862 5862 5863 5864 5864 5864 5864 5865 5865 5865 5866 5867 5867 5867 5867 5867 5867 5867 5867 5867 5867 5868 5868 5867 5867 5867 5867 5866 5864 5861 5859 5859 5859 5859 5859 5859 5859 5858 5858 5857 5856 5856 5855 5854 5853 5852 5850 5849 5848 5847 5846 5844 5843 5842 5841 5840 5839 5838 5836 5835 5834 5833 5831 5830 5829 5828 5827 5825 5824 5822 5821
5846 5847 5849 5850 5852 5853 5854 5855 5856 5858 5859 5859 5859 5859 5859 5860 5861 5861 5862 5862 5862 5862 5862 5862 5863 5864 5864 5864 5864 5864 5864 5864 5864 5864 5864 5864 5864 5864 5863 5863 5862 5861 5860 5859 5858 5857 5857 5856 5856 5855 5855 5854 5853 5852 5852 5851 5850 5849 5849 5847 5846 5845 5844 5842 5841 5840 5839 5838 5836 5835 5834 5833 5831 5829 5828 5827 5825 5824 5822 5821 5820 5819 5818 5817 5815
5847 5848 5849 5849 5850 5851 5853 5854 5855 5856 5856 5856 5857 5857 5858 5858 5859 5859 5860 5860 5860 5860 5861 5861 5861 5861 5861 5861 5861 5861 5862 5861 5861 5861 5861 5861 5861 5861 5860 5859 5858 5858 5857 5856 5856 5855 5854 5853 5853 5852 5851 5850 5849 5848 5848 5847 5846 5845 5844 5843 5842 5841 5839 5838 5837 5836 5834 5833 5832 5830 5829 5827 5825 5824 5822 5820 5819 5817 5816 5814 5813 5811 5810 5809 5808
5848 5849 5849 5849 5850 5850 5852 5853 5853 5854 5854 5855 5855 5856 5857 5857 5858 5858 5858 5858 5858 5859 5859 5859 5859 5859 5859 5859 5859 5859 5859 5858 5858 5858 5858 5858 5857 5857 5856 5856 5855 5854 5854 5853 5852 5852 5851 5850 5849 5848 5847 5846 5845 5844 5844 5843 5842 5841 5840 5838 5837 5836 5835 5834 5832 5831 5830 5828 5826 5824 5823 5821 5819 5818 5816 5814 5812 5810 5809 5807 5806 5804 5803 5801 5801
5848 5848 5849 5849 5849 5850 5850 5851 5852 5852 5852 5853 5854 5855 5855 5856 5856 5856 5856 5857 5857 5857 5856 5856 5856 5856 5856 5856 5855 5855 5855 5855 5855 5854 5854 5854 5853 5853 5852 5852 5851 5850 5850 5849 5848 5847 5846 5845 5844 5843 5843 5842 5841 5840 5839 5838 5837 5836 5835 5834 5833 5832 5830 5829 5828 5826 5824 5822 5821 5819 5817 5815 5813 5811 5810 5808 5806 5804 5802 5800 5799 5797 5796 5794 5793
5846 5847 5847 5847 5848 5848 5849 5849 5849 5850 5850 5851 5852 5853 5853 5854 5854 5854 5855 5855 5855 5854 5854 5854 5853 5853 5853 5853 5852 5852 5851 5851 5851 5850 5850 5849 5849 5848 5848 5847 5847 5846 5845 5844 5844 5842 5842 5841 5840 5839 5838 5837 5836 5835 5834 5833 5832 5831 5830 5829 5827 5826 5825 5823 5822 5820 5818 5817 5815 5813 5811 5809 5807 5805 5803 5801 5799 5798 5796 5794 5792 5790 5789 5787 5785
5843 5844 5845 5845 5846 5846 5847 5847 5847 5848 5848 5849 5850 5850 5851 5851 5851 5852 5852 5852 5852 5851 5851 5851 5850 5850 5849 5849 5848 5848 5848 5847 5847 5846 5846 5845 5845 5844 5844 5843 5842 5842 5841 5840 5839 5838 5837 5836 5835 5834 5833 5832 5831 5830 5829 5828 5827 5825 5824 5823 5821 5820 5818 5817 5815 5813 5811 5810 5808 5806 5804 5802 5800 5798 5796 5794 5793 5791 5789 5787 5785 5783 5782 5780 5778
5839 5841 5842 5842 5843 5844 5844 5845 5845 5846 5846 5847 5847 5848 5848 5848 5848 5848 5848 5848 5848 5847 5847 5847 5846 5846 5845 5845 5844 5844 5843 5843 5842 5842 5842 5841 5841 5840 5839 5838 5838 5837 5836 5835 5834 5833 5833 5832 5831 5830 5829 5827 5826 5825 5824 5823 5821 5820 5818 5817 5815 5814 5812 5810 5808 5807 5805 5803 5801 5799 5797 5795 5793 5791 5789 5788 5786 5784 5782 5780 5779 5777 5775 5773 5771
5836 5837 5838 5839 5840 5840 5841 5841 5842 5843 5843 5843 5844 5844 5844 5844 5844 5844 5844 5844 5843 5843 5843 5842 5842 5841 5841 5840 5840 5840 5839 5839 5838 5838 5838 5837 5836 5836 5835 5834 5833 5832 5831 5831 5830 5829 5828 5827 5826 5825 5824 5823 5821 5820 5819 5818 5816 5815 5813 5811 5810 5808 5806 5804 5802 5800 5798 5796 5794 5792 5790 5787 5785 5784 5782 5780 5778 5776 5774 5773 5771 5769 5768 5766 5764
5833 5834 5834 5835 5836 5837 5837 5838 5838 5838 5839 5839 5839 5839 5839 5839 5839 5839 5839 5839 5839 5838 5838 5838 5838 5837 5837 5837 5836 5836 5835 5835 5835 5834 5834 5833 5832 5832 5831 5830 5829 5829 5828 5827 5826 5825 5824 5823 5822 5820 5819 5818 5816 5815 5814 5812 5810 5809 5807 5805 5803 5801 5799 5797 5795 5793 5790 5788 5786 5784 5782 5780 5778 5776 5774 5772 5770 5768 5766 5764 5763 5761 5760 5758 5756
5829 5830 5831 5831 5832 5833 5833 5834 5834 5834 5834 5834 5834 5834 5834 5834 5834 5834 5834 5834 5834 5834 5834 5833 5833 5833 5832 5832 5832 5832 5831 5831 5831 5830 5830 5829 5829 5828 5828 5827 5826 5825 5824 5823 5822 5821 5820 5818 5817 5816 5815 5813 5811 5810 5808 5807 5805 5803 5801 5799 5796 5794 5792 5790 5788 5785 5783 5780 5778 5776 5774 5772 5770 5768 5766 5764 5762 5760 5757 5755 5753 5752 5750 5749 5747
5826 5827 5827 5828 5828 5829 5829 5830 5830 5830 5830 5830 5830 5830 5829 5829 5829 5829 5829 5829 5829 5829 5829 5829 5828 5828 5828 5828 5827 5827 5827 5826 5826 5826 5825 5825 5825 5824 5824 5823 5822 5821 5820 5819 5818 5816 5815 5813 5812 5811 5810 5808 5807 5805 5803 5801 5799 5797 5795 5792 5790 5788 5786 5783 5780 5778 5775 5772 5770 5768 5766 5764 5762 5759 5757 5755 5753 5751 5748 5746 5744 5741 5740 5738 5736
5823 5823 5824 5824 5825 5825 5825 5825 5825 5825 5825 5825 5825 5825 5825 5825 5825 5825 5825 5825 5825 5825 5825 5824 5824 5824 5823 5823 5823 5823 5822 5822 5822 5821 5821 5821 5820 5820 5819 5819 5818 5817 5816 5815 5813 5812 5810 5809 5808 5807 5805 5804 5802 5800 5798 5796 5794 5792 5789 5787 5784 5782 5779 5777 5774 5771 5768 5765 5763 5761 5758 5756 5754 5751 5748 5746 5743 5741 5739 5737 5734 5731 5729 5727 5725
5820 5821 5821 5821 5822 5822 5822 5822 5822 5822 5822 5822 5821 5821 5821 5821 5821 5821 5821 5821 5821 5821 5821 5821 5820 5820 5820 5820 5819 5819 5819 5818 5818 5818 5817 5817 5816 5816 5815 5814 5813 5812 5811 5810 5808 5807 5806 5805 5804 5802 5801 5799 5797 5795 5793 5791 5788 5786 5783 5781 5778 5775 5772 5770 5766 5763 5761 5758 5756 5753 5751 5748 5745 5742 5740 5737 5734 5731 5729 5727 5724 5721 5719 5717 5714
5817 5818 5819 5819 5819 5819 5819 5819 5819 5819 5819 5818 5818 5818 5818 5818 5818 5818 5818 5818 5818 5818 5818 5818 5817 5817 5817 5817 5816 5816 5815 5815 5815 5814 5814 5813 5813 5812 5811 5810 5809 5807 5806 5805 5803 5802 5801 5800 5798 5797 5795 5793 5791 5789 5786 5784 5781 5778 5776 5773 5770 5767 5764 5761 5758 5755 5752 5749 5747 5744 5741 5739 5736 5733 5730 5727 5724 5721 5719 5716 5714 5711 5708 5705 5703
5814 5815 5815 5815 5816 5816 5816 5816 5816 5816 5816 5816 5816 5816 5816 5816 5816 5816 5816 5816 5816 5816 5815 5815 5815 5814 5814 5813 5813 5813 5812 5812 5811 5811 5810 5810 5809 5808 5807 5806 5805 5803 5802 5800 5799 5797 5796 5794 5792 5790 5788 5786 5784 5781 5779 5776 5774 5771 5768 5765 5762 5759 5756 5753 5750 5746 5743 5740 5737 5734 5731 5728 5725 5722 5719 5716 5712 5710 5707 5705 5702 5699 5696 5693 5691
5810 5811 5811 5812 5812 5812 5813 5813 5813 5813 5813 5813 5814 5814 5814 5814 5814 5814 5814 5814 5813 5813 5813 5813 5812 5812 5811 5811 5810 5810 5810 5809 5809 5808 5807 5807 5806 5804 5803 5802 5800 5799 5797 5795 5794 5792 5790 5788 5786 5784 5782 5779 5777 5775 5772 5770 5767 5764 5761 5758 5755 5752 5749 5745 5742 5738 5734 5731 5728 5724 5721 5718 5715 5712 5709 5705 5702 5699 5696 5693 5690 5687 5684 5681 5679
5807 5808 5808 5809 5809 5809 5810 5810 5811 5811 5811 5811 5811 5812 5812 5812 5812 5812 5812 5812 5811 5811 5811 5811 5810 5810 5809 5809 5808 5808 5807 5807 5806 5805 5804 5803 5802 5801 5799 5798 5796 5795 5793 5791 5789 5787 5785 5783 5781 5779 5776 5774 5772 5769 5766 5764 5761 5758 5755 5752 5748 5745 5741 5738 5734 5730 5726 5723 5720 5716 5713 5709 5705 5702 5699 5696 5692 5689 5686 5683 5680 5676 5674 5671 5668
5804 5805 5806 5806 5806 5807 5807 5808 5808 5809 5809 5809 5809 5809 5810 5810 5810 5810 5810 5809 5809 5809 5808 5808 5808 5807 5807 5806 5806 5805 5804 5804 5803 5802 5801 5800 5799 5797 5796 5794 5792 5790 5788 5787 5785 5783 5780 5778 5776 5774 5771 5769 5766 5763 5760 5757 5754 5751 5747 5744 5740 5737 5733 5729 5724 5720 5717 5713 5710 5706 5703 5699 5695 5692 5689 5686 5682 5679 5677 5674 5670 5667 5664 5661 5658
5801 5802 5803 5803 5804 5804 5805 5805 5806 5806 5806 5807 5807 5807 5807 5807 5807 5807 5807 5807 5807 5806 5806 5805 5805 5805 5804 5804 5803 5802 5801 5800 5799 5798 5797 5796 5794 5793 5791 5789 5787 5786 5784 5782 5780 5778 5775 5773 5770 5768 5765 5762 5759 5756 5753 5749 5746 5743 5739 5735 5732 5728 5723 5719 5714 5710 5706 5703 5699 5696 5692 5688 5685 5682 5679 5675 5672 5669 5667 5664 5661 5657 5655 5652 5649
5798 5799 5799 5800 5801 5801 5802 5802 5802 5803 5803 5804 5804 5804 5804 5804 5804 5804 5804 5804 5804 5803 5803 5802 5802 5802 5801 5800 5800 5799 5798 5797 5796 5794 5793 5792 5790 5788 5787 5785 5783 5781 5779 5777 5775 5773 5770 5767 5764 5761 5759 5755 5752 5749 5746 5742 5739 5735 5731 5727 5723 5719 5714 5710 5705 5700 5697 5693 5689 5686 5682 5678 5675 5672 5669 5666 5663 5660 5657 5654 5652 5648 5645 5642 5639
5796 5796 5797 5797 5798 5799 5799 5799 5799 5800 5800 5800 5801 5801 5801 5801 5801 5801 5801 5801 5801 5800 5799 5799 5799 5798 5798 5797 5796 5795 5794 5793 5792 5790 5789 5787 5785 5784 5782 5780 5778 5776 5774 5771 5769 5767 5764 5761 5758 5755 5752 5749 5745 5742 5739 5735 5731 5727 5723 5719 5714 5710 5706 5701 5696 5692 5688 5684 5681 5677 5674 5670 5667 5664 5661 5658 5655 5652 5649 5645 5642 5639 5636 5633 5629
5794 5794 5794 5795 5796 5796 5797 5797 5797 5797 5798 5798 5798 5799 5799 5799 5799 5798 5798 5798 5797 5797 5796 5796 5795 5795 5794 5793 5792 5791 5790 5788 5787 5785 5784 5782 5780 5778 5776 5774 5772 5770 5768 5765 5763 5760 5758 5755 5752 5749 5745 5742 5738 5735 5731 5727 5723 5719 5714 5710 5706 5701 5697 5692 5688 5684 5680 5676 5673 5669 5666 5663 5660 5656 5653 5650 5647 5644 5641 5637 5634 5631 5628 5624 5621
5791 5792 5792 5793 5793 5794 5794 5795 5795 5795 5796 5796 5796 5797 5797 5796 5796 5796 5795 5795 5794 5794 5793 5792 5791 5791 5790 5788 5787 5786 5785 5783 5781 5780 5778 5776 5774 5772 5770 5768 5766 5764 5762 5760 5757 5754 5752 5749 5745 5742 5738 5735 5731 5727 5723 5718 5714 5710 5706 5702 5698 5693 5689 5684 5680 5676 5672 5669 5665 5662 5658 5655 5652 5649 5645 5642 5639 5636 5633 5630 5627 5624 5620 5617 5613
5788 5789 5790 5790 5791 5792 5792 5793 5793 5793 5793 5794 5794 5794 5794 5794 5793 5793 5792 5792 5791 5790 5789 5789 5787 5786 5785 5784 5783 5781 5780 5778 5776 5775 5773 5771 5769 5767 5765 5763 5761 5759 5757 5754 5752 5749 5746 5742 5739 5735 5731 5727 5723 5719 5715 5710 5706 5702 5698 5694 5690 5685 5681 5677 5673 5669 5665 5661 5658 5654 5651 5648 5645 5642 5639 5636 5633 5630 5627 5624 5621 5617 5613 5609 5605
5785 5786 5787 5788 5788 5789 5789 5790 5790 5790 5791 5791 5791 5791 5791 5790 5790 5789 5788 5788 5787 5786 5785 5784 5783 5782 5781 5779 5778 5776 5775 5773 5772 5770 5768 5767 5765 5763 5761 5759 5757 5755 5752 5749 5746 5743 5739 5736 5732 5728 5724 5720 5715 5711 5707 5703 5699 5694 5690 5686 5682 5678 5674 5669 5665 5662 5658 5654 5651 5647 5644 5641 5638 5636 5633 5631 5628 5625 5622 5618 5615 5611 5607 5603 5600
5782 5783 5784 5785 5785 5786 5786 5786 5787 5787 5787 5787 5787 5787 5787 5786 5786 5785 5784 5783 5783 5782 5781 5780 5779 5777 5776 5775 5773 5772 5770 5769 5767 5766 5764 5762 5761 5759 5757 5755 5752 5750 5747 5744 5740 5737 5733 5730 5726 5721 5717 5713 5708 5704 5700 5695 5691 5687 5683 5679 5674 5670 5666 5662 5658 5654 5651 5647 5644 5641 5638 5636 5633 5631 5628 5626 5623 5619 5616 5612 5609 5606 5602 5599 5596
5778 5779 5780 5781 5782 5782 5783 5783 5783 5784 5784 5784 5783 5783 5783 5782 5781 5780 5780 5779 5778 5778 5777 5776 5774 5773 5772 5770 5769 5768 5766 5764 5763 5761 5760 5758 5756 5754 5752 5750 5747 5744 5741 5738 5735 5731 5728 5724 5719 5715 5710 5706 5701 5697 5693 5688 5684 5680 5675 5671 5667 5663 5659 5655 5651 5648 5645 5642 5639 5636 5634 5631 5629 5626 5624 5621 5618 5614 5611 5608 5605 5602 5599 5596 5592
5775 5776 5777 5778 5778 5779 5779 5780 5780 5780 5780 5780 5780 5779 5778 5778 5777 5776 5776 5775 5774 5773 5772 5771 5770 5769 5767 5766 5764 5763 5761 5760 5758 5757 5755 5753 5751 5749 5747 5744 5741 5739 5736 5732 5729 5726 5722 5717 5713 5708 5704 5700 5695 5691 5687 5682 5678 5673 5669 5665 5661 5656 5653 5649 5645 5642 5639 5637 5635 5632 5630 5628 5625 5622 5619 5616 5613 5610 5608 5605 5602 5599 5596 5593 5589
5772 5773 5773 5774 5774 5775 5775 5776 5777 5777 5777 5776 5776 5775 5774 5774 5773 5772 5772 5771 5770 5769 5768 5767 5765 5764 5763 5761 5760 5758 5757 5755 5754 5752 5750 5748 5746 5744 5741 5739 5736 5733 5730 5727 5723 5720 5716 5711 5707 5703 5699 5694 5690 5686 5681 5677 5672 5668 5664 5659 5655 5651 5647 5643 5640 5637 5635 5633 5631 5629 5627 5625 5622 5618 5615 5612 5610 5607 5604 5602 5599 5596 5593 5590 5587
5769 5769 5770 5770 5771 5771 5772 5773 5773 5773 5773 5773 5772 5771 5770 5770 5769 5768 5767 5766 5765 5764 5763 5762 5761 5760 5758 5757 5755 5754 5752 5751 5749 5747 5745 5743 5741 5738 5736 5733 5731 5728 5725 5721 5718 5714 5710 5706 5702 5698 5694 5690 5686 5681 5677 5672 5668 5663 5659 5654 5650 5646 5642 5639 5636 5633 5631 5630 5628 5626 5624 5621 5618 5615 5612 5609 5607 5604 5602 5599 5596 5593 5590 5587 5584